Location: Ward Pound Ridge Reservation
(41.2500°N, 73.6000°W)
Time: 04:55:08
(UTC-04:00)

ISS - Pass Details

Date: 07 October 2017
Orbit: 401 x 408 km, 51.6° (Epoch: 20 October)

Event Time Altitude Azimuth Distance (km) Brightness Sun altitude
Rises 19:05:02 0° 303° (WNW) 2,325 1.1 -8.2°
Reaches altitude 10° 19:07:56 10° 331° (NNW) 1,467 -0.6 -8.7°
Maximum altitude 19:09:42 14° 4° (N) 1,265 -1.4 -9.1°
Drops below altitude 10° 19:11:28 10° 37° (NE) 1,469 -1.3 -9.4°
Enters shadow 19:12:19 - 48° (NE) 1,678 -1.1 -9.5°
